This is the latest recevied weather packets stored in our database for station/object K7YVO. If no packets are shown the sender has not sent any weather packets the latest 10 day(s).
| Time | Temp. | Humidity | Pressure | Rain* | Wind** | Luminosity | Snow |
|---|---|---|---|---|---|---|---|
| 1778011948 | 15° C | 78% | 1018.7 hPa | 0 mm | - | 261 W/m² | - |
| 1778011646 | 15° C | 79% | 1018.8 hPa | 0 mm | - | 203 W/m² | - |
| 1778011343 | 15° C | 80% | 1018.7 hPa | 0 mm | - | 171 W/m² | - |
| 1778011038 | 14.44° C | 81% | 1018.8 hPa | 0 mm | - | 191 W/m² | - |
| 1778010736 | 15° C | 80% | 1018.7 hPa | 0 mm | - | 178 W/m² | - |
| 1778010433 | 14.44° C | 82% | 1018.9 hPa | 0 mm | - | 203 W/m² | - |
| 1778010129 | 14.44° C | 83% | 1018.7 hPa | 0 mm | - | 216 W/m² | - |
| 1778009825 | 14.44° C | 82% | 1018.7 hPa | 0 mm | - | 220 W/m² | - |
| 1778009523 | 13.89° C | 83% | 1018.6 hPa | 0 mm | - | 231 W/m² | - |
| 1778009221 | 13.89° C | 84% | 1018.9 hPa | 0 mm | - | 209 W/m² | - |
| 1778008918 | 13.89° C | 86% | 1018.8 hPa | 0 mm | - | 179 W/m² | - |
| 1778008616 | 13.89° C | 85% | 1018.7 hPa | 0 mm | - | 151 W/m² | - |
| 1778008314 | 13.33° C | 86% | 1018.8 hPa | 0 mm | - | 140 W/m² | - |
| 1778008010 | 13.33° C | 86% | 1018.8 hPa | 0 mm | - | 142 W/m² | - |
| 1778007710 | 13.33° C | 86% | 1018.6 hPa | 0 mm | - | 156 W/m² | - |
| 1778007407 | 13.33° C | 85% | 1018.8 hPa | 0 mm | - | 139 W/m² | - |
| 1778007103 | 13.33° C | 84% | 1018.8 hPa | 0 mm | - | 156 W/m² | - |
| 1778006800 | 13.33° C | 85% | 1018.6 hPa | 0 mm | - | 166 W/m² | - |
| 1778006497 | 13.33° C | 86% | 1018.8 hPa | 0 mm | - | 157 W/m² | - |
| 1778006194 | 13.33° C | 88% | 1018.7 hPa | 0 mm | - | 183 W/m² | - |
| 1778005892 | 12.78° C | 89% | 1018.9 hPa | 0 mm | - | 168 W/m² | - |
| 1778005587 | 12.78° C | 88% | 1018.9 hPa | 0 mm | - | 159 W/m² | - |
| 1778005285 | 12.78° C | 89% | 1018.8 hPa | 0 mm | - | 128 W/m² | - |
| 1778004981 | 12.78° C | 89% | 1018.8 hPa | 0 mm | - | 103 W/m² | - |
| 1778004679 | 12.78° C | 91% | 1018.8 hPa | 0 mm | - | 101 W/m² | - |
* Rain latest hour (hover to see other rain measurements)
** Current wind speed in m/s (hover to see current wind gust speed)